When you browse on this site, cookies collect data to enhance your experience and personalize the content and advertising you see.
Visit our Privacy Policy to learn more. By continuing to use the site, you agree to this use of cookies and data.
  • In United Kingdom
  • List of Countries
  • For 7 days
  • Water Temperature
  • Satellite Maps
  • Weather Map
  • Weather Widgets
  • user-avatar
    Login

    Hourly Weather Lisburn

    Today, 18 December, Tuesday

    Time Temperature Precipitation Wind Pressure Humidity
    00:00 +10°C° 0 mm 15 mps 744 mmHg 84%
    01:00 +10°C° 0.2 mm 15 mps 743 mmHg 84%
    02:00 +10°C° 0.2 mm 15 mps 743 mmHg 84%
    03:00 +10°C° 0.2 mm 14 mps 742 mmHg 83%
    04:00 +9°C° 0.8 mm 15 mps 741 mmHg 84%
    05:00 +9°C° 0.8 mm 15 mps 740 mmHg 84%
    06:00 +9°C° 0 mm 16 mps 739 mmHg 86%
    07:00 +9°C° 1.1 mm 14 mps 739 mmHg 86%
    08:00 +9°C° 1.1 mm 12 mps 739 mmHg 86%
    09:00 +8°C° 1.1 mm 10 mps 739 mmHg 86%
    10:00 +8°C° 0.3 mm 10 mps 740 mmHg 85%
    11:00 +8°C° 0.3 mm 9 mps 740 mmHg 85%
    12:00 +7°C° 0 mm 8 mps 740 mmHg 84%
    13:00 +7°C° 0 mm 8 mps 740 mmHg 84%
    14:00 +8°C° 0 mm 7 mps 740 mmHg 85%
    15:00 +6°C° 0 mm 7 mps 741 mmHg 85%
    16:00 +7°C° 0 mm 6 mps 741 mmHg 86%
    17:00 +5°C° 0 mm 6 mps 741 mmHg 87%
    18:00 +5°C° 0 mm 6 mps 741 mmHg 89%
    19:00 +4°C° 0 mm 6 mps 741 mmHg 89%
    20:00 +4°C° 0 mm 6 mps 742 mmHg 90%
    21:00 +5°C° 0 mm 5 mps 742 mmHg 91%
    22:00 +5°C° 0 mm 5 mps 742 mmHg 91%
    23:00 +3°C° 0 mm 5 mps 742 mmHg 90%

    Tomorrow, 19 December, Wednesday

    Time Temperature Precipitation Wind Pressure Humidity
    00:00 +3°C° 0 mm 5 mps 742 mmHg 90%
    01:00 +3°C° 0 mm 5 mps 742 mmHg 89%
    02:00 +3°C° 0 mm 6 mps 742 mmHg 89%
    03:00 +3°C° 0 mm 6 mps 742 mmHg 88%
    04:00 +3°C° 0 mm 6 mps 742 mmHg 88%
    05:00 +2°C° 0 mm 6 mps 742 mmHg 88%
    06:00 +2°C° 0 mm 6 mps 742 mmHg 87%
    07:00 +2°C° 0 mm 7 mps 742 mmHg 87%
    08:00 +3°C° 0 mm 7 mps 742 mmHg 87%
    09:00 +3°C° 0 mm 7 mps 742 mmHg 86%
    10:00 +3°C° 0 mm 7 mps 742 mmHg 85%
    11:00 +4°C° 0 mm 8 mps 742 mmHg 84%
    12:00 +5°C° 0 mm 8 mps 742 mmHg 83%
    13:00 +5°C° 0.1 mm 8 mps 741 mmHg 84%
    14:00 +5°C° 0.1 mm 7 mps 741 mmHg 85%
    15:00 +5°C° 0.1 mm 7 mps 741 mmHg 85%
    16:00 +4°C° 0.1 mm 7 mps 741 mmHg 87%
    17:00 +4°C° 0.1 mm 7 mps 741 mmHg 88%
    18:00 +4°C° 0.1 mm 6 mps 741 mmHg 89%
    19:00 +4°C° 0 mm 6 mps 741 mmHg 89%
    20:00 +3°C° 0 mm 6 mps 741 mmHg 90%
    21:00 +3°C° 0 mm 6 mps 741 mmHg 91%
    22:00 +3°C° 0.1 mm 6 mps 741 mmHg 91%
    23:00 +3°C° 0.1 mm 6 mps 741 mmHg 92%

    Day after tomorrow, 20 December, Thursday

    Time Temperature Precipitation Wind Pressure Humidity
    00:00 +4°C° 0.1 mm 6 mps 742 mmHg 92%
    01:00 +4°C° 0 mm 6 mps 742 mmHg 91%
    02:00 +4°C° 0 mm 7 mps 743 mmHg 90%
    03:00 +4°C° 0 mm 7 mps 743 mmHg 89%
    04:00 +4°C° 0 mm 7 mps 743 mmHg 89%
    05:00 +4°C° 0 mm 7 mps 744 mmHg 88%
    06:00 +4°C° 0 mm 7 mps 744 mmHg 88%
    07:00 +4°C° 0.1 mm 7 mps 745 mmHg 88%
    08:00 +4°C° 0.1 mm 7 mps 745 mmHg 88%
    09:00 +3°C° 0.1 mm 7 mps 745 mmHg 87%
    10:00 +4°C° 0 mm 7 mps 746 mmHg 86%
    11:00 +4°C° 0 mm 7 mps 746 mmHg 84%
    12:00 +5°C° 0 mm 7 mps 746 mmHg 83%
    13:00 +5°C° 0 mm 7 mps 746 mmHg 83%
    14:00 +5°C° 0 mm 7 mps 746 mmHg 84%
    15:00 +5°C° 0 mm 6 mps 746 mmHg 84%
    16:00 +4°C° 0 mm 6 mps 746 mmHg 85%
    17:00 +4°C° 0 mm 6 mps 746 mmHg 87%
    18:00 +3°C° 0 mm 6 mps 746 mmHg 89%
    19:00 +3°C° 0 mm 6 mps 746 mmHg 89%
    20:00 +3°C° 0 mm 5 mps 746 mmHg 90%
    21:00 +3°C° 0 mm 5 mps 745 mmHg 91%
    22:00 +3°C° 0 mm 5 mps 744 mmHg 91%
    23:00 +3°C° 0 mm 5 mps 743 mmHg 91%

    21 December, Friday

    Time Temperature Precipitation Wind Pressure Humidity
    00:00 +4°C° 0 mm 4 mps 742 mmHg 91%
    01:00 +5°C° 1.9 mm 5 mps 741 mmHg 92%
    02:00 +5°C° 1.9 mm 5 mps 740 mmHg 94%
    03:00 +5°C° 1.9 mm 6 mps 738 mmHg 96%
    04:00 +5°C° 1 mm 7 mps 738 mmHg 93%
    05:00 +6°C° 1 mm 8 mps 738 mmHg 91%
    06:00 +6°C° 1 mm 9 mps 738 mmHg 88%
    07:00 +6°C° 0 mm 9 mps 738 mmHg 86%
    08:00 +6°C° 0 mm 10 mps 738 mmHg 83%
    09:00 +6°C° 0 mm 11 mps 739 mmHg 81%
    10:00 +6°C° 0 mm 11 mps 739 mmHg 80%
    11:00 +5°C° 0 mm 12 mps 740 mmHg 78%
    12:00 +5°C° 0 mm 13 mps 741 mmHg 77%
    13:00 +6°C° 0 mm 11 mps 742 mmHg 78%
    14:00 +6°C° 0 mm 10 mps 743 mmHg 78%
    15:00 +6°C° 0 mm 8 mps 743 mmHg 79%
    16:00 +5°C° 0 mm 8 mps 744 mmHg 81%
    17:00 +5°C° 0 mm 7 mps 744 mmHg 83%
    18:00 +4°C° 0 mm 6 mps 744 mmHg 85%
    19:00 +5°C° 0.4 mm 5 mps 744 mmHg 88%
    20:00 +5°C° 0.4 mm 5 mps 744 mmHg 90%
    21:00 +5°C° 0.4 mm 5 mps 744 mmHg 92%
    22:00 +5°C° 0.3 mm 5 mps 745 mmHg 92%
    23:00 +5°C° 0.3 mm 5 mps 745 mmHg 93%

    22 December, Saturday

    Time Temperature Precipitation Wind Pressure Humidity
    00:00 +5°C° 0.3 mm 5 mps 745 mmHg 93%
    01:00 +6°C° 0.1 mm 5 mps 745 mmHg 91%
    02:00 +5°C° 0.1 mm 6 mps 746 mmHg 89%
    03:00 +5°C° 0.1 mm 7 mps 746 mmHg 87%
    04:00 +5°C° 0 mm 8 mps 746 mmHg 86%
    05:00 +5°C° 0 mm 9 mps 746 mmHg 84%
    06:00 +5°C° 0 mm 10 mps 746 mmHg 83%
    07:00 +5°C° 0 mm 10 mps 746 mmHg 83%
    08:00 +5°C° 0 mm 10 mps 747 mmHg 82%
    09:00 +6°C° 0 mm 11 mps 747 mmHg 82%
    10:00 +6°C° 0 mm 11 mps 748 mmHg 81%
    11:00 +6°C° 0 mm 11 mps 749 mmHg 80%
    12:00 +6°C° 0 mm 10 mps 750 mmHg 80%
    13:00 +6°C° 0 mm 10 mps 751 mmHg 80%
    14:00 +6°C° 0 mm 9 mps 751 mmHg 81%
    15:00 +6°C° 0 mm 8 mps 752 mmHg 81%
    16:00 +5°C° 0 mm 7 mps 753 mmHg 83%
    17:00 +5°C° 0 mm 7 mps 754 mmHg 85%
    18:00 +4°C° 0 mm 6 mps 754 mmHg 88%
    19:00 +4°C° 0 mm 6 mps 755 mmHg 88%
    20:00 +4°C° 0 mm 6 mps 755 mmHg 88%
    21:00 +3°C° 0 mm 6 mps 756 mmHg 89%
    22:00 +3°C° 0 mm 6 mps 756 mmHg 89%
    23:00 +3°C° 0 mm 6 mps 756 mmHg 89%

    23 December, Sunday

    Time Temperature Precipitation Wind Pressure Humidity
    00:00 +3°C° 0 mm 6 mps 757 mmHg 89%
    01:00 +2°C° 0 mm 5 mps 757 mmHg 89%
    02:00 +2°C° 0 mm 5 mps 757 mmHg 90%
    03:00 +2°C° 0 mm 5 mps 758 mmHg 91%
    04:00 +3°C° 0 mm 4 mps 758 mmHg 92%
    05:00 +3°C° 0 mm 4 mps 758 mmHg 93%
    06:00 +2°C° 0 mm 3 mps 758 mmHg 93%
    07:00 +2°C° 0 mm 3 mps 759 mmHg 94%
    08:00 +2°C° 0 mm 3 mps 759 mmHg 94%
    09:00 +3°C° 0 mm 2 mps 759 mmHg 94%
    10:00 +4°C° 0 mm 2 mps 760 mmHg 92%
    11:00 +6°C° 0 mm 1 mps 760 mmHg 90%
    12:00 +7°C° 0 mm 1 mps 760 mmHg 88%
    13:00 +7°C° 0 mm 1 mps 760 mmHg 88%
    14:00 +7°C° 0 mm 1 mps 760 mmHg 88%
    15:00 +7°C° 0 mm 1 mps 760 mmHg 89%
    16:00 +7°C° 0 mm 1 mps 761 mmHg 89%
    17:00 +6°C° 0 mm 1 mps 761 mmHg 90%
    18:00 +6°C° 0 mm 1 mps 761 mmHg 91%
    19:00 +6°C° 0 mm 1 mps 761 mmHg 90%
    20:00 +5°C° 0 mm 2 mps 762 mmHg 90%
    21:00 +5°C° 0 mm 2 mps 762 mmHg 90%
    22:00 +5°C° 0 mm 2 mps 762 mmHg 91%
    23:00 +5°C° 0 mm 2 mps 762 mmHg 91%
    Show more